Skip Page Navigation
NASA JPL Caltech
NASA Logo - Jet Propulsion Laboratory + View the NASA Portal
+ Center for Near-Earth Object Studies
JPL Home Earth Solar System Stars & Galaxies Technology
JPL Solar System Dynamics
BODIES ORBITS EPHEMERIDES TOOLS PHYSICAL DATA DISCOVERY FAQ SITE MAP
JPL Small-Body Database Browser
Search: [ help ]  
523108 (2016 RG50)
Classification: Main-belt Asteroid          SPK-ID: 2523108
Ephemeris | Orbit Diagram | Orbital Elements | Mission Design | Physical Parameters | Discovery Circumstances ]

[ show orbit diagram ]
Orbital Elements at Epoch 2459000.5 (2020-May-31.0) TDB
Reference: JPL 4 (heliocentric ecliptic J2000)
 Element Value Uncertainty (1-sigma)   Units 
e .02453603697389806 9.876e-08  
a 2.552861560276727 4.6353e-08 au
q 2.490224454644534 2.2287e-07 au
i 13.79543683801102 8.3658e-06 deg
node 138.023241084645 4.7602e-05 deg
peri 147.8108669577682 0.00059049 deg
M 69.84409601010572 0.00060351 deg
tp 2458711.454293487032
(2019-Aug-15.95429349)
0.0024932 TDB
period 1489.838945436599
4.08
4.0577e-05
1.111e-07
d
yr
n .2416368568580422 6.5812e-09 deg/d
Q 2.61549866590892 4.749e-08 au
  Orbit Determination Parameters
   # obs. used (total)      86  
   data-arc span      6801 days (18.62 yr)  
   first obs. used      2002-03-12  
   last obs. used      2020-10-24  
   planetary ephem.      DE431  
   SB-pert. ephem.      SB431-N16  
   condition code      0  
   norm. resid. RMS      .60832  
   source      ORB  
   producer      Otto Matic  
   solution date      2020-Nov-11 22:46:19  

Additional Information
 Earth MOID = 1.48092 au 
 Jupiter MOID = 2.47485 au 
 T_jup = 3.398 
[ show covariance matrix ]

Ephemeris | Orbit Diagram | Orbital Elements | Mission Design | Physical Parameters | Discovery Circumstances ]

Physical Parameter Table
Parameter Symbol Value Units Sigma Reference Notes
absolute magnitude H 17.0   n/a MPO448150  

523108 (2016 RG50)          Discovered 2014-Feb-11 by Mt. Lemmon Survey at Mount Lemmon
Reference: Last Updated: 2018-05-31
Ephemeris | Orbit Diagram | Orbital Elements | Mission Design | Physical Parameters | Discovery Circumstances ]
ABOUT SSD CREDITS/AWARDS PRIVACY/COPYRIGHT GLOSSARY LINKS
FirstGov 2020-Nov-24 04:41 UT
(server date/time)  
NASA Home Page
Site Manager:   Ryan S. Park
Webmaster  Alan B. Chamberlin